Flight Track Log - Related Links

Times and Time Zones

All times are in EDT time to prevent confusion due to time zone crossing. See the UAL5832 flight status page for this flight to view local times or setup timezone preferences in your user account.

Time Position Orientation Groundspeed Altitude Reporting Facility
EDT Latitude Longitude Course Direction KTS MPH feet Rate Location/Type
10:07AM 41.9500 -87.8333 169° South 186 214 3,100  Level Chicago TRACON
10:09AM 41.8694 -87.7650 148° Southeast 229 264 4,900 759 Climbing Chicago Center
10:10AM 41.6733 -87.5484 173° South  Level Estimated
10:10AM 41.7961 -87.7600 177° South 252 290 5,100  Level Chicago Center
10:11AM 41.5961 -87.4594 90° East  Level Estimated
10:11AM 41.7206 -87.7550 177° South 264 304 6,800  Level Chicago Center
10:12AM 41.5188 -87.3706 169° South  Level Estimated
10:12AM 41.6453 -87.7328 168° South 284 327 8,600  Level Chicago Center
10:13AM 41.5725 -87.6789 151° Southeast 297 342 10,100 1,452 Climbing Chicago Center
10:14AM 41.4797 -87.6117 152° Southeast 313 360 11,600 1,210 Climbing Chicago Center
10:15AM 41.3903 -87.5669 159° South 346 398 12,600 1,016 Climbing Chicago Center
10:16AM 41.2922 -87.5494 172° South 354 407 13,700 1,016 Climbing Chicago Center
10:17AM 41.1894 -87.5314 172° South 365 420 14,700 968 Climbing Chicago Center
10:18AM 41.0861 -87.5036 169° South 374 430 15,700 968 Climbing Chicago Center
10:19AM 40.9839 -87.4744 168° South 378 435 16,700 1,016 Climbing Chicago Center
10:20AM 40.8583 -87.4403 168° South 384 442 17,800 1,065 Climbing Chicago Center
10:21AM 40.7547 -87.4156 170° South 382 440 18,900 1,016 Climbing Chicago Center
10:22AM 40.6494 -87.3869 168° South 384 442 19,900 968 Climbing Chicago Center
10:23AM 40.5442 -87.3592 169° South 386 444 20,900 1,016 Climbing Chicago Center
10:24AM 40.4303 -87.3156 164° South 392 451 22,000 1,024 Climbing Chicago Center
10:25AM 40.3439 -87.2294 143° Southeast 392 451 23,000 968 Climbing Chicago Center
10:26AM 40.2544 -87.1503 146° Southeast 389 448 24,000 960 Climbing Chicago Center
10:27AM 40.1664 -87.0669 144° Southeast 393 452 25,000 964 Climbing Chicago Center
10:28AM 40.0928 -87.0017 146° Southeast 392 451 25,800 1,034 Climbing Indianapolis Center
10:30AM 39.9014 -86.8172 144° Southeast 391 450 28,000 1,032 Climbing Indianapolis Center
10:31AM 39.8358 -86.7036 127° Southeast 393 452 29,000 968 Climbing Indianapolis Center
10:32AM 39.7697 -86.5939 128° Southeast 389 448 30,000 484 Climbing Indianapolis Center
10:33AM 39.7011 -86.4792 128° Southeast 404 465 30,000 341 Level Indianapolis Center
10:34AM 39.6139 -86.3367 128° Southeast 428 493 30,700 488 Climbing Indianapolis Center
10:35AM 39.5428 -86.2158 127° Southeast 432 497 31,000 145 Climbing Indianapolis Center
10:36AM 39.4669 -86.0894 128° Southeast 445 512 31,000  Level Indianapolis Center
10:37AM 39.3872 -85.9589 128° Southeast 461 531 31,000  Level Indianapolis Center
10:38AM 39.3056 -85.8256 128° Southeast 474 545 31,000  Level Indianapolis Center
10:39AM 39.2078 -85.6650 128° Southeast 477 549 31,000  Level Indianapolis Center
10:40AM 39.1258 -85.5333 129° Southeast 473 544 31,000  Level Indianapolis Center
10:41AM 39.0461 -85.4017 128° Southeast 471 542 31,000  Level Indianapolis Center
10:43AM 38.9633 -85.2700 129° Southeast 470 541 31,000  Level Indianapolis Center
10:44AM 38.8833 -85.1411 129° Southeast 468 539 31,000  Level Indianapolis Center
10:45AM 38.8036 -85.0128 129° Southeast 464 534 31,000  Level Indianapolis Center
10:46AM 38.7058 -84.8592 129° Southeast 465 535 31,000  Level Indianapolis Center
10:47AM 38.6214 -84.7253 129° Southeast 461 531 31,000  Level Indianapolis Center
10:48AM 38.5411 -84.5986 129° Southeast 459 528 31,000  Level Indianapolis Center
10:49AM 38.4597 -84.4717 129° Southeast 461 531 31,000  Level Indianapolis Center
10:50AM 38.3797 -84.3442 129° Southeast 459 528 31,000  Level Indianapolis Center
10:51AM 38.3000 -84.2203 129° Southeast 453 521 31,000  Level Indianapolis Center
10:52AM 38.2183 -84.0950 130° Southeast 457 526 31,000  Level Indianapolis Center
10:53AM 38.1386 -83.9700 129° Southeast 455 524 31,000  Level Indianapolis Center
10:54AM 38.0433 -83.8239 130° Southeast 456 525 31,000  Level Indianapolis Center
10:55AM 37.9631 -83.6975 129° Southeast 459 528 31,000 -49 Level Indianapolis Center
10:56AM 37.8814 -83.5728 130° Southeast 459 528 30,900 -488 Descending Indianapolis Center
10:57AM 37.7950 -83.4508 132° Southeast 464 534 30,000 -919 Descending Indianapolis Center
10:58AM 37.6906 -83.3439 141° Southeast 480 552 29,000 -484 Descending Indianapolis Center
10:59AM 37.5861 -83.2414 142° Southeast 476 548 29,000  Level Indianapolis Center
11:00AM 37.4819 -83.1394 142° Southeast 474 545 29,000  Level Indianapolis Center
11:01AM 37.3594 -83.0192 142° Southeast 475 547 29,000  Level Indianapolis Center
11:02AM 37.2542 -82.9156 142° Southeast 477 549 29,000  Level Indianapolis Center
11:03AM 37.1475 -82.8111 142° Southeast 479 551 29,000  Level Indianapolis Center
11:04AM 37.0400 -82.7058 142° Southeast 480 552 29,000  Level Indianapolis Center
11:05AM 36.9311 -82.6011 142° Southeast 484 557 29,000  Level Indianapolis Center
11:06AM 36.8233 -82.4989 143° Southeast 482 555 29,000  Level Indianapolis Center
11:07AM 36.7097 -82.4075 147° Southeast 481 554 29,000  Level Indianapolis Center
11:08AM 36.5933 -82.3194 149° Southeast 486 559 29,000  Level Indianapolis Center
11:09AM 36.4581 -82.2186 149° Southeast 485 558 29,000 -194 Level Indianapolis Center
11:10AM 36.3431 -82.1308 148° Southeast 483 556 28,600 -1,355 Descending Indianapolis Center
11:11AM 36.2256 -82.0439 149° Southeast 489 563 26,200 -2,390 Descending Indianapolis Center
11:12AM 36.1144 -81.9614 149° Southeast 472 543 23,700 -2,565 Descending Indianapolis Center
11:14AM 35.9764 -81.8603 149° Southeast 445 512 20,300 -2,409 Descending Atlanta Center
11:15AM 35.8856 -81.7961 150° Southeast 426 490 18,200 -2,250 Descending Atlanta Center
11:16AM 35.7883 -81.7244 149° Southeast 412 474 15,800 -2,571 Descending Atlanta Center
11:16AM 35.7353 -81.6825 147° Southeast 393 452 14,300 -2,500 Descending Atlanta Center
11:17AM 35.6992 -81.6556 149° Southeast 399 459 13,300 -1,516 Descending Atlanta Center
11:18AM 35.6039 -81.5764 146° Southeast 362 417 12,000 -650 Descending Atlanta Center
11:19AM 35.5417 -81.4917 132° Southeast 364 419 12,000  Level Atlanta Center
11:19AM 35.5308 -81.4742 127° Southeast 376 433 12,000 -600 Level Atlanta Center
11:20AM 35.4769 -81.3917 129° Southeast 376 433 11,400 -818 Descending Atlanta Center
11:20AM 35.4575 -81.3642 131° Southeast 382 440 11,100 -1,200 Descending Atlanta Center
11:21AM 35.4100 -81.2919 129° Southeast 376 433 10,200 -968 Descending Atlanta Center
11:21AM 35.3947 -81.2642 124° Southeast 375 432 10,100 -200 Descending Atlanta Center
11:22AM 35.3453 -81.1997 133° Southeast 369 425 10,000 -122 Descending Atlanta Center
11:22AM 35.3431 -81.1872 102° East 343 395 10,000  Level Atlanta Center
11:23AM 35.2914 -81.1178 132° Southeast 338 389 10,000  Level Atlanta Center
11:23AM 35.2719 -81.0931 134° Southeast 305 351 10,000 -600 Level Atlanta Center
11:24AM 35.2172 -81.0694 161° South 289 333 9,400 -1,279 Descending Atlanta Center
11:24AM 35.1900 -81.0703 181° South 305 351 8,700 -1,900 Descending Atlanta Center
11:25AM 35.1336 -81.0647 175° South 300 345 7,500 -1,592 Descending Atlanta Center
11:25AM 35.1208 -81.0628 173° South 297 342 7,400 -700 Descending Atlanta Center
11:26AM 35.0603 -81.0572 176° South 281 323 6,800 -716 Descending Atlanta Center
11:26AM 35.0456 -81.0553 174° South 231 266 6,600 -1,417 Descending Atlanta Center
11:27AM 35.0092 -81.0136 137° Southeast 192 221 5,100 -1,395 Descending Atlanta Center
11:28AM 35.0586 -80.9839 26° Northeast 185 213 3,600 -1,122 Descending Atlanta Center
11:29AM 35.0997 -80.9644 21° North 177 204 2,800 -879 Descending Atlanta Center
11:30AM 35.1456 -80.9653 359° North 145 167 1,900 -836 Descending Atlanta Center
11:31AM 35.1853 -80.9664 359° North 133 153 1,100 -787 Descending Atlanta Center

Login

Don't have an account? Register now (free) for customized features, flight alerts, and more!